Regional Weather Roundup
Issued by NWS

Home | Current Version | Previous Version | Text Only | Print | Product List | Glossary Off
Versions: 1 2 3 4 5 6 7 8 9 10 11 12 13 14 15 16 17 18 19 20 21 22 23 24 25 26 27 28 29 30 31 32 33 34 35 36 37 38 39 40 41 42 43 44 45 46 47 48 49 50

000
ASUS43 KOAX 021510
RWRNE

WEATHER ROUNDUP FOR NEBRASKA
NATIONAL WEATHER SERVICE OMAHA NE
1000 AM CDT THU JUL 02 2015

NOTES: SATELLITE DATA IS BEING USED TO AUGMENT CLOUD COVER ABOVE
       12000 FEET.
       "FAIR" INDICATES FEW OR NO CLOUDS BELOW 12,000 FEET WITH NO
       SIGNIFICANT WEATHER AND/OR OBSTRUCTIONS TO VISIBILITY.

  * THESE STATIONS DO NOT REPORT WEATHER SUCH AS RAIN...SNOW OR FOG.

NEZ001>004-019>022-054>056-021600-
NEBRASKA PANHANDLE

CITY           SKY/WX    TMP DP  RH WIND       PRES   REMARKS
SCOTTSBLUFF    SUNNY     69  60  73 W14G21    30.14S
ALLIANCE       SUNNY     68  61  78 NW13      30.11S
CHADRON        SUNNY     71  60  68 NW15G22   30.11R
SIDNEY         MOSUNNY   68  61  78 W14       30.15R
$$

NEZ057>060-069>072-079>082-021600-
SOUTHWEST NEBRASKA

CITY           SKY/WX    TMP DP  RH WIND       PRES   REMARKS
NORTH PLATTE   MOSUNNY   74  62  66 NW13      30.02R
IMPERIAL       CLOUDY    69  60  73 SW7       30.05F
MCCOOK         CLOUDY    70  61  73 SW7       30.00F
$$

NEZ005>010-023>029-035>040-094-021600-
NORTH CENTRAL NEBRASKA

CITY           SKY/WX    TMP DP  RH WIND       PRES   REMARKS
VALENTINE      MOSUNNY   74  62  66 NW14G22   30.00R
BROKEN BOW     PTSUNNY   73  62  68 N9        29.99R
ORD            CLOUDY    73  66  78 N7        29.95S
$$

NEZ041-046>049-061>064-073>077-083>087-021600-
SOUTH CENTRAL NEBRASKA

CITY           SKY/WX    TMP DP  RH WIND       PRES   REMARKS
GRAND ISLAND   CLOUDY    73  69  87 CALM      29.94F
HASTINGS       LGT RAIN  70  69  97 CALM      29.94F
KEARNEY *      CLOUDY    73  66  78 SW10      29.94S
$$

NEZ011>018-030>034-042>045-021600-
NORTHEAST NEBRASKA

CITY           SKY/WX    TMP DP  RH WIND       PRES   REMARKS
NORFOLK        LGT RAIN  62  61  96 E8        29.96S FOG
COLUMBUS *     CLOUDY    63  57  82 E8        29.96R
TEKAMAH        CLOUDY    65  59  81 SE5       29.97S
$$

NEZ050>053-065>068-078-088>093-021600-
SOUTHEAST NEBRASKA

CITY           SKY/WX    TMP DP  RH WIND       PRES   REMARKS
LINCOLN        CLOUDY    67  63  87 E8        29.96R FOG
OMAHA EPPLEY   LGT RAIN  65  62  90 E5        29.97S
FALLS CITY     CLOUDY    69  66  90 E8        29.93S
$$

NEZ044-045-051>053-067-021600-
OMAHA AREA

CITY           SKY/WX    TMP DP  RH WIND       PRES   REMARKS
OMAHA EPPLEY   LGT RAIN  65  62  90 E5        29.97S
OFFUTT AFB     CLOUDY    66  63  88 E7        29.95F
$$



USA.gov is the U.S. government's official web portal to all federal, state and local government web resources and services.